Rush City, MN

1:14 PM CDT on March 26, 2017 (GMT -0500)
Rush City Regional

Weather History for KROS - March, 2014

Change the Weather History Date:

Monday, March 3, 2014

  Actual Average (KCBG) Record (KCBG)
Temperature  
Mean Temperature -6 °F -  
Max Temperature 7 °F 32 °F 52 °F (1983)
Min Temperature -19 °F 14 °F -20 °F (2014)
Degree Days  
Heating Degree Days 71    
Moisture  
Dew Point -11 °F    
Average Humidity 69    
Maximum Humidity 86    
Minimum Humidity 50    
Precipitation  
Precipitation 0.00 in - - ()
Sea Level Pressure  
Sea Level Pressure 30.40 in    
Wind  
Wind Speed 2 mph (SSE)    
Max Wind Speed 6 mph    
Max Gust Speed -    
Visibility 9 miles    
Events Snow    
Averages and records for this station are not official NWS values.
T = Trace of Precipitation, MM = Missing Value Source: NWS Daily Summary

Daily Weather History Graph

Daily Weather History Graph

Search for Another Location

Airport or City:

Trip Planner

Search our weather history database for the weather conditions in past years. The results will help you decide how hot, cold, wet, or windy it might be!

Date:

Astronomy

Mar. 03, 2014 Rise Set
Actual Time 6:46 AM CST 6:01 PM CST
Civil Twilight 6:16 AM CST 6:31 PM CST
Nautical Twilight 5:42 AM CST 7:05 PM CST
Astronomical Twilight 5:08 AM CST 7:40 PM CST
Moon 7:45 AM CST (3/3) 9:16 PM CST (3/3)
Length of Visible Light 12h 14m
Length of Day
11h 14m
Waxing Crescent, 8% of the Moon is Illuminated
Mar 3
Waxing Crescent
Mar 8
First Quarter
Mar 16
Full
Mar 23
Last Quarter
Mar 30
New

Hourly Weather History & Observations

Time (CST) Temp. Windchill Dew Point Humidity Pressure Visibility Wind Dir Wind Speed Gust Speed Precip Events Conditions
12:14 AM -11.0 °F -20.4 °F -18.4 °F 70% 30.50 in 10.0 mi WNW 3.5 mph - N/A   Mostly Cloudy
12:35 AM -10.5 °F - -18.0 °F 69% 30.49 in 10.0 mi Calm Calm - N/A   Mostly Cloudy
12:54 AM -9.9 °F -19.2 °F -17.5 °F 69% 30.49 in 10.0 mi NW 3.5 mph - N/A   Mostly Cloudy
1:15 AM -9.9 °F -19.2 °F -18.2 °F 67% 30.50 in 10.0 mi NW 3.5 mph - N/A   Mostly Cloudy
1:35 AM -9.6 °F -18.8 °F -17.9 °F 67% 30.50 in 10.0 mi NW 3.5 mph - N/A   Mostly Cloudy
1:54 AM -11.2 °F - -19.5 °F 67% 30.50 in 10.0 mi Calm Calm - N/A   Mostly Cloudy
2:15 AM -12.8 °F - -19.5 °F 72% 30.51 in 10.0 mi Calm Calm - N/A   Mostly Cloudy
2:35 AM -13.9 °F -23.7 °F -20.4 °F 73% 30.51 in 10.0 mi West 3.5 mph - N/A   Scattered Clouds
2:54 AM -13.5 °F - -19.5 °F 75% 30.51 in 10.0 mi Calm Calm - N/A   Mostly Cloudy
3:15 AM -15.9 °F - -21.8 °F 74% 30.51 in 10.0 mi Calm Calm - N/A   Scattered Clouds
3:35 AM -15.7 °F - -21.5 °F 75% 30.51 in 10.0 mi Calm Calm - N/A   Mostly Cloudy
3:54 AM -15.9 °F - -21.3 °F 77% 30.51 in 10.0 mi Calm Calm - N/A   Mostly Cloudy
4:15 AM -16.2 °F - -22.2 °F 74% 30.50 in 10.0 mi Calm Calm - N/A   Mostly Cloudy
4:34 AM -16.8 °F - -22.2 °F 76% 30.50 in 10.0 mi Calm Calm - N/A   Mostly Cloudy
4:55 AM -17.3 °F - -22.4 °F 78% 30.49 in 10.0 mi Calm Calm - N/A   Scattered Clouds
5:15 AM -18.4 °F - -23.4 °F 78% 30.50 in 10.0 mi Calm Calm - N/A   Mostly Cloudy
5:34 AM -19.8 °F - -25.1 °F 77% 30.50 in 10.0 mi Calm Calm - N/A   Scattered Clouds
5:55 AM -18.9 °F - -24.2 °F 77% 30.49 in 10.0 mi Calm Calm - N/A   Scattered Clouds
6:14 AM -18.9 °F - -24.2 °F 77% 30.49 in 10.0 mi Calm Calm - N/A   Mostly Cloudy
6:35 AM -19.1 °F - -24.3 °F 77% 30.48 in 10.0 mi Calm Calm - N/A   Scattered Clouds
6:55 AM -18.8 °F - -23.8 °F 78% 30.48 in 10.0 mi Calm Calm - N/A   Clear
7:14 AM -18.4 °F - -23.8 °F 76% 30.48 in 10.0 mi Calm Calm - N/A   Clear
7:35 AM -16.6 °F - -22.0 °F 76% 30.48 in 10.0 mi Calm Calm - N/A   Clear
7:55 AM -15.2 °F - -20.2 °F 78% 30.48 in 10.0 mi Calm Calm - N/A   Scattered Clouds
8:14 AM -13.0 °F - -18.4 °F 77% 30.47 in 10.0 mi Calm Calm - N/A   Mostly Cloudy
8:35 AM -11.6 °F - -17.1 °F 76% 30.47 in 10.0 mi Calm Calm - N/A   Overcast
8:54 AM -9.8 °F - -17.0 °F 71% 30.46 in 10.0 mi Calm Calm - N/A   Overcast
9:15 AM -8.3 °F - -16.6 °F 67% 30.46 in 10.0 mi Calm Calm - N/A   Mostly Cloudy
9:35 AM -6.0 °F - -15.9 °F 62% 30.46 in 10.0 mi Calm Calm - N/A   Scattered Clouds
9:54 AM -4.5 °F - -15.7 °F 59% 30.45 in 10.0 mi Calm Calm - N/A   Mostly Cloudy
10:15 AM -4.0 °F - -15.7 °F 57% 30.45 in 10.0 mi Calm Calm - N/A   Mostly Cloudy
10:34 AM -2.4 °F -10.6 °F -14.8 °F 56% 30.45 in 10.0 mi South 3.5 mph - N/A   Mostly Cloudy
10:55 AM -1.5 °F - -13.9 °F 56% 30.45 in 10.0 mi Calm Calm - N/A   Overcast
11:15 AM -0.6 °F -8.5 °F -13.5 °F 54% 30.44 in 10.0 mi SSW 3.5 mph - N/A   Overcast
11:34 AM 0.7 °F - -12.6 °F 54% 30.43 in 10.0 mi Calm Calm - N/A   Overcast
11:55 AM 1.2 °F -6.4 °F -12.6 °F 52% 30.42 in 10.0 mi South 3.5 mph - N/A   Overcast
12:15 PM 1.8 °F -7.8 °F -11.6 °F 54% 30.41 in 10.0 mi South 4.6 mph - N/A   Overcast
12:34 PM 2.3 °F -5.2 °F -11.2 °F 53% 30.42 in 10.0 mi South 3.5 mph - N/A   Overcast
12:55 PM 3.0 °F -6.4 °F -11.0 °F 52% 30.41 in 10.0 mi SSW 4.6 mph - N/A   Overcast
1:15 PM 3.0 °F -8.0 °F -11.6 °F 51% 30.40 in 10.0 mi South 5.8 mph - N/A   Overcast
1:34 PM 3.6 °F - -11.2 °F 50% 30.39 in 10.0 mi Calm Calm - N/A   Overcast
1:55 PM 4.1 °F -5.1 °F -10.3 °F 51% 30.38 in 10.0 mi SSE 4.6 mph - N/A   Overcast
2:15 PM 4.6 °F -6.0 °F -10.5 °F 50% 30.38 in 10.0 mi South 5.8 mph - N/A   Overcast
2:34 PM 4.6 °F -4.5 °F -8.5 °F 55% 30.37 in 10.0 mi South 4.6 mph - N/A   Overcast
2:55 PM 5.9 °F -4.5 °F -8.3 °F 52% 30.37 in 10.0 mi SSE 5.8 mph - N/A   Overcast
3:15 PM 5.9 °F -3.0 °F -8.1 °F 53% 30.36 in 10.0 mi South 4.6 mph - N/A   Overcast
3:34 PM 5.9 °F -1.1 °F -8.0 °F 53% 30.37 in 10.0 mi SSE 3.5 mph - N/A   Overcast
3:55 PM 5.9 °F - -7.8 °F 53% 30.35 in 10.0 mi Calm Calm - N/A   Overcast
4:15 PM 6.4 °F -0.5 °F -6.7 °F 55% 30.35 in 10.0 mi SE 3.5 mph - N/A   Overcast
4:35 PM 6.4 °F -0.5 °F -6.7 °F 55% 30.34 in 10.0 mi SSE 3.5 mph - N/A   Overcast
4:55 PM 6.4 °F -0.5 °F -6.3 °F 56% 30.33 in 10.0 mi SSE 3.5 mph - N/A   Overcast
5:15 PM 6.8 °F - -6.0 °F 56% 30.32 in 10.0 mi Calm Calm - N/A   Overcast
5:34 PM 7.5 °F 0.8 °F -4.9 °F 57% 30.31 in 10.0 mi SSE 3.5 mph - N/A   Overcast
5:55 PM 7.3 °F -2.8 °F -4.0 °F 60% 30.31 in 10.0 mi South 5.8 mph - N/A   Overcast
6:15 PM 6.4 °F -0.5 °F -0.9 °F 72% 30.30 in 5.0 mi SSE 3.5 mph - N/A Snow Light Snow
6:34 PM 5.9 °F - 0.9 °F 80% 30.30 in 4.0 mi Calm Calm - N/A Snow Light Snow
6:55 PM 5.7 °F - 1.4 °F 82% 30.30 in 3.0 mi Calm Calm - N/A Snow Light Snow
7:15 PM 5.5 °F - 1.4 °F 83% 30.29 in 5.0 mi Calm Calm - N/A Snow Light Snow
7:35 PM 5.4 °F - 1.4 °F 84% 30.29 in 5.0 mi Calm Calm - N/A Snow Light Snow
7:54 PM 5.4 °F - 1.4 °F 84% 30.29 in 5.0 mi Calm Calm - N/A Snow Light Snow
8:14 PM 5.0 °F -2.1 °F 1.4 °F 85% 30.28 in 7.0 mi ESE 3.5 mph - N/A Snow Light Snow
8:35 PM 5.0 °F - 1.4 °F 85% 30.27 in 7.0 mi Calm Calm - N/A Snow Light Snow
8:54 PM 5.0 °F - 1.6 °F 86% 30.27 in 5.0 mi Calm Calm - N/A Snow Light Snow
9:15 PM 5.2 °F - 1.8 °F 86% 30.27 in 7.0 mi Calm Calm - N/A Snow Light Snow
9:35 PM 5.5 °F -1.5 °F 1.9 °F 85% 30.26 in 10.0 mi ESE 3.5 mph - N/A   Overcast
9:55 PM 5.7 °F -1.3 °F 2.1 °F 85% 30.25 in 10.0 mi East 3.5 mph - N/A   Overcast
10:15 PM 5.7 °F -1.3 °F 2.1 °F 85% 30.24 in 10.0 mi East 3.5 mph - N/A   Overcast
10:34 PM 5.9 °F -1.1 °F 2.1 °F 84% 30.24 in 10.0 mi ESE 3.5 mph - N/A   Overcast
10:55 PM 5.9 °F - 2.1 °F 84% 30.24 in 10.0 mi Calm Calm - N/A   Overcast
11:14 PM 6.3 °F -0.7 °F 2.3 °F 84% 30.24 in 10.0 mi SE 3.5 mph - N/A   Overcast
11:35 PM 6.3 °F -0.7 °F 2.1 °F 83% 30.24 in 10.0 mi SE 3.5 mph - N/A   Overcast
11:55 PM 6.3 °F -2.6 °F 1.8 °F 82% 30.24 in 10.0 mi SSE 4.6 mph - N/A   Overcast